Lovelock, NV

2:59 PM PDT on May 26, 2018 (GMT -0700)
Derby

Weather History for KLOL - February, 2013

Change the Weather History Date:

Wednesday, February 20, 2013

  Actual Average Record
Temperature  
Mean Temperature 34 °F -  
Max Temperature 45 °F 51 °F 68 °F (1982)
Min Temperature 21 °F 23 °F 1 °F (2018)
Degree Days  
Heating Degree Days 31    
Moisture  
Dew Point 13 °F    
Average Humidity 46    
Maximum Humidity 74    
Minimum Humidity 21    
Precipitation  
Precipitation 0.00 in - - ()
Sea Level Pressure  
Sea Level Pressure 29.87 in    
Wind  
Wind Speed 12 mph (North)    
Max Wind Speed 17 mph    
Max Gust Speed 26 mph    
Visibility 10 miles    
Events      
Averages and records for this station are not official NWS values.
T = Trace of Precipitation, MM = Missing Value Source: NWS Daily Summary

Daily Weather History Graph

Daily Weather History Graph

Search for Another Location

Airport or City:

Astronomy

Feb. 20, 2013 Rise Set
Actual Time 6:40 AM PST 5:36 PM PST
Civil Twilight 6:12 AM PST 6:03 PM PST
Nautical Twilight 5:41 AM PST 6:35 PM PST
Astronomical Twilight 5:09 AM PST 7:06 PM PST
Moon 1:01 PM PST (2/20) 3:04 AM PST (2/20)
Length of Visible Light 11h 51m
Length of Day
10h 56m
Waxing Gibbous, 77% of the Moon is Illuminated
Feb 20
Waxing Gibbous
Feb 25
Full
Mar 4
Last Quarter
Mar 11
New
Mar 19
First Quarter

Hourly Weather History & Observations

Time (PST) Temp. Windchill Dew Point Humidity Pressure Visibility Wind Dir Wind Speed Gust Speed Precip Events Conditions
12:53 AM 35.1 °F 25.9 °F 19.9 °F 54% 29.67 in 10.0 mi North 13.8 mph - N/A   Clear
1:53 AM 35.1 °F 25.9 °F 19.9 °F 54% 29.69 in 10.0 mi North 13.8 mph - N/A   Clear
2:53 AM 34.0 °F 23.4 °F 19.0 °F 54% 29.72 in 10.0 mi North 17.3 mph 26.5 mph N/A   Clear
3:53 AM 33.1 °F 23.4 °F 19.0 °F 56% 29.75 in 10.0 mi North 13.8 mph - N/A   Clear
4:53 AM 32.0 °F 22.1 °F 18.0 °F 56% 29.78 in 10.0 mi North 13.8 mph - N/A   Clear
5:53 AM 30.0 °F 21.7 °F 19.0 °F 64% 29.83 in 10.0 mi North 9.2 mph - N/A   Clear
6:53 AM 23.0 °F 12.4 °F 16.0 °F 74% 29.87 in 10.0 mi East 10.4 mph - N/A   Clear
7:53 AM 30.9 °F 23.5 °F 19.9 °F 64% 29.90 in 10.0 mi ENE 8.1 mph - N/A   Clear
8:53 AM 36.0 °F 26.3 °F 19.0 °F 50% 29.91 in 10.0 mi North 16.1 mph - N/A   Clear
9:53 AM 39.0 °F 31.4 °F 17.1 °F 41% 29.91 in 10.0 mi North 12.7 mph - N/A   Clear
10:53 AM 42.1 °F 36.1 °F 15.1 °F 34% 29.91 in 10.0 mi North 10.4 mph 21.9 mph N/A   Clear
12:53 PM 44.1 °F 37.7 °F 7.0 °F 22% 29.88 in 10.0 mi NNE 12.7 mph 21.9 mph N/A   Clear
1:53 PM 44.1 °F 37.7 °F 7.0 °F 22% 29.88 in 10.0 mi NNE 12.7 mph 21.9 mph N/A   Clear
2:53 PM 45.0 °F 38.9 °F 7.0 °F 21% 29.87 in 10.0 mi North 12.7 mph - N/A   Clear
3:53 PM 43.0 °F 36.4 °F 6.1 °F 22% 29.89 in 10.0 mi North 12.7 mph - N/A   Clear
5:53 PM 36.0 °F 30.3 °F 9.0 °F 33% 29.95 in 10.0 mi North 6.9 mph - N/A   Clear
6:53 PM 33.1 °F 27.7 °F 9.0 °F 37% 29.98 in 10.0 mi NE 5.8 mph - N/A   Clear
7:53 PM 27.0 °F - 9.0 °F 47% 29.99 in 10.0 mi Calm Calm - N/A   Clear
8:53 PM 27.0 °F 20.5 °F 8.1 °F 45% 29.98 in 10.0 mi NE 5.8 mph - N/A   Clear
9:53 PM 23.0 °F 17.0 °F 9.0 °F 55% 29.99 in 10.0 mi WNW 4.6 mph - N/A   Clear
11:53 PM 21.9 °F 13.4 °F 8.1 °F 55% 29.98 in 10.0 mi NNW 6.9 mph - N/A   Clear